User: anonymous
Location: Fisheating Creek Campgrounds
(26.9333°N, 81.3167°W)
Time: 06:20:45
(UTC-04:00)
Language:

Cosmos 2221 Rocket - Orbit

View from above orbital plane
View from above orbital plane
View from above satellite
View from above satellite

Ground track
Ground track

The orbit data is extracted from the following two-line orbital elements,

1 22237U 92080B   14208.61105031  .00000177  00000-0  21354-4 0  3894
2 22237 082.5123 019.4218 0020983 059.8311 345.2219 14.77873842167509
Epoch (UTC): 27 July 2014 14:39:54
Eccentricity: 0.0020983
inclination: 82.5123°
perigee height: 621 km
apogee height: 651 km
right ascension of ascending node: 19.4218°
argument of perigee: 59.8311°
revolutions per day: 14.77873842
mean anomaly at epoch: 345.2219°
orbit number at epoch: 16750

The dashed part of the orbit path shows where the satellite is in the earth's shadow,  

DLR